OpenBCM V1.08-5-g2f4a (Linux)

Packet Radio Mailbox

IZ3LSV

[San Dona' di P. JN]

 Login: GUEST





  
CX2SA  > KEPS     31.08.12 03:48l 219 Lines 10429 Bytes #999 (0) @ WW
BID : ORB12243.N
Read: GUEST
Subj: 2Line Orbital Elements 12243.AMSAT
Path: IZ3LSV<IR1UAW<IK1NHL<CX2SA
Sent: 120831/0244Z @:CX2SA.SAL.URY.SA #:831 [Salto] FBB7.00e $:ORB12243.N
From: CX2SA@CX2SA.SAL.URY.SA
To  : KEPS@AMSAT


HR AMSAT ORBITAL ELEMENTS FOR AMATEUR SATELLITES IN NASA FORMAT
FROM WA5QGD FORT WORTH,TX August 30, 2012
Send SUBSCRIBE KEPS/UNSUBSCRIBE KEPS to majordomo@amsat.org only
BID: ORB12243.N

DECODE 2-LINE ELSETS WITH THE FOLLOWING KEY:
1 AAAAAU 00  0  0 BBBBB.BBBBBBBB  .CCCCCCCC  00000-0  00000-0 0  DDDZ
2 AAAAA EEE.EEEE FFF.FFFF GGGGGGG HHH.HHHH III.IIII JJ.JJJJJJJJKKKKKZ
KEY: A-CATALOGNUM B-EPOCHTIME C-DECAY D-ELSETNUM E-INCLINATION F-RAAN
G-ECCENTRICITY H-ARGPERIGEE I-MNANOM J-MNMOTION K-ORBITNUM Z-CHECKSUM

TO ALL RADIO AMATEURS BT

AO-07
1 07530U 74089B   12242.56641505 -.00000027  00000-0  10000-3 0 04692
2 07530 101.4078 236.9574 0011904 137.5592 222.6398 12.53590897729246
FO-29
1 24278U 96046B   12242.83912297  .00000023  00000-0  60404-4 0 09432
2 24278 098.5855 333.8677 0350282 198.5435 160.2670 13.52987825791916
SO-33
1 25509U 98061B   12242.49405104  .00000192  00000-0  26558-4 0  3102
2 25509 031.4310 278.8254 0352008 124.8664 238.5568 14.28803163723140
RS-22
1 27939U 03042A   12243.76522293  .00000342  00000-0  73414-4 0  6783
2 27939 097.8077 080.7436 0014233 032.7286 327.4802 14.64106037476790
VO-52
1 28650U 05017B   12242.66452947  .00001219  00000-0  15486-3 0 01956
2 28650 097.5933 270.0162 0026663 157.0571 203.1815 14.83124546395865
HO-68
1 36122U 09072B   12243.70264519 -.00000044  00000-0  00000 0 0  7859
2 36122 100.3543 301.5237 0007240 301.6637 058.3758 13.16297635130195
UO-11
1 14781U 84021B   12243.73565018  .00000472  00000-0  68507-4 0  9626
2 14781 097.9476 302.5779 0009435 145.1497 215.0334 14.80533389530965
AO-16
1 20439U 90005D   12242.86930627  .00000087  00000-0  48213-4 0 05706
2 20439 098.4350 184.1974 0010362 305.5809 054.4408 14.32076952180547
LO-19
1 20442U 90005G   12242.95101487  .00000145  00000-0  69381-4 0 04921
2 20442 098.4014 187.0267 0011164 295.6331 064.3696 14.32294050180747
AO-27
1 22825U 93061C   12242.74153837 -.00000026  00000-0  67483-5 0  1845
2 22825 098.5778 184.4288 0009291 065.8779 294.3379 14.29479480986988
IO-26
1 22826U 93061D   12242.93824065  .00000092  00000-0  52706-4 0 09565
2 22826 098.5732 184.9729 0009875 058.3347 301.8800 14.29755397987146
GO-32
1 25397U 98043D   12242.58007461  .00000008  00000-0  21576-4 0 08635
2 25397 098.3702 217.7057 0002192 077.3787 282.7624 14.23288689734465
NO-44
1 26931U 01043C   12242.62847389  .00000052  00000-0  52303-4 0 01252
2 26931 067.0521 291.0561 0006846 254.9992 105.0338 14.29823704569743
SO-50
1 27607U 02058C   12243.67614253  .00000345  00000-0  73370-4 0  8516
2 27607 064.5565 068.2911 0078704 233.5217 125.8584 14.72473201520934
CO-55
1 27844U 03031E   12243.62717992  .00000151  00000-0  89809-4 0  4515
2 27844 098.7047 250.9293 0010229 013.4549 346.6918 14.21061166475463
CO-57
1 27848U 03031J   12242.58762922  .00000091  00000-0  62302-4 0  4013
2 27848 098.7135 249.2724 0010150 022.6051 337.5561 14.20807307475252
AO-51
1 28375U 04025K   12242.89312965  .00000087  00000-0  38725-4 0  3527
2 28375 098.1553 204.7724 0082957 177.1930 182.9733 14.40978286429381
CP3
1 31129U 07012N   12243.51753468  .00000525  00000-0  12943-3 0  2501
2 31129 097.8823 246.9288 0099535 251.7569 107.2773 14.53180387284775
CO-65
1 32785U 08021C   12242.65091230  .00000624  00000-0  82884-4 0 04017
2 32785 097.7924 301.9437 0014429 177.3568 182.7732 14.83131826234656
PRISM
1 33493U 09002B   12243.83138968  .00001972  00000-0  24175-3 0   241
2 33493 098.1802 026.2307 0019708 057.1148 303.1967 14.84209861194829
SOHLA-1
1 33496U 09002E   12242.89034422  .00000364  00000-0  68903-4 0 08216
2 33496 098.1097 354.1637 0006731 158.0380 202.1110 14.70024130193071
SO-67
1 35870U 09049F   12243.83594039  .00003417  00000-0  14244-3 0  2815
2 35870 097.2290 276.9615 0000396 291.0717 190.9819 15.24343779163984
TISAT-1
1 36799U 10035E   12243.80894577  .00001186  00000-0  15565-3 0  2997
2 36799 098.0581 320.6814 0013788 294.1943 065.7828 14.82167640115541
STUDSAT
1 36801U 10035G   12242.94042557  .00003734  00000-0  44497-3 0 04582
2 36801 098.0675 320.8703 0011455 280.6811 079.3115 14.84897625115467
FO-69
1 37227U 0        12243.39884796  .00000268  00000-0  45651-4 0 02711
2 37227 071.9697 148.1906 0017495 187.1713 172.9202 14.77144147047054
FO-70
1 37380U 0        12243.28147121  .00000350  00000-0  57611-4 0 02758
2 37380 071.9727 149.1032 0018005 184.4449 175.6549 14.76895720046921
ALMASAT-1
1 38078U 12006B   12243.65942246  .00015010  00000-0  41879-3 0  5237
2 38078 069.4855 148.2973 0748264 155.5658 208.2946 14.11426858 28051
XATCOBEO
1 38082U 12006F   12243.70863684  .00038283  00000-0  92775-3 0  5177
2 38082 069.4832 144.0972 0713929 153.2981 210.6876 14.21476777 28165
NOAA-10
1 16969U 86073A   12242.96427220  .00000090  00000-0  54032-4 0 00569
2 16969 098.5786 270.6915 0012693 022.5370 337.6366 14.27571973350396
NOAA-11
1 19531U 88089A   12242.89767218 -.00000160  00000-0 -60335-4 0 00396
2 19531 098.7301 326.4985 0011734 017.1866 342.9692 14.14977383234934
NOAA-12
1 21263U 91032A   12242.95761300  .00000092  00000-0  57786-4 0 05478
2 21263 098.7266 264.2678 0013811 350.9987 009.0943 14.25514164107066
MET-3/5
1 21655U 91056A   12243.44564479 -.00000034  00000-0 -11992-3 0  4927
2 21655 082.5530 099.7327 0014356 134.7637 225.4656 13.17040984 11662
MET-2/21
1 22782U 93055A   12242.84161029  .00000018  00000-0  29855-5 0 05141
2 22782 082.5512 334.0733 0021349 309.1126 050.8138 13.83688753959358
OKEAN-4
1 23317U 94066A   12243.88285876  .00000720  00000-0  83439-4 0  9850
2 23317 082.5423 321.3685 0023192 103.7508 256.6291 14.83913390965889
NOAA-14
1 23455U 94089A   12242.92729012  .00000009  00000-0  28083-4 0 00256
2 23455 098.8238 325.4897 0010261 104.0917 256.1393 14.13867594911210
NOAA-15
1 25338U 98030A   12242.77766385  .00000243  00000-0  12238-3 0 03836
2 25338 098.6969 229.0175 0009638 253.7893 106.2208 14.25111363743335
RESURS
1 25394U 98043A   12242.95398676 -.00000003  00000-0  16253-4 0 01965
2 25394 098.3271 227.3322 0002310 041.4152 318.7203 14.24292731734901
FENGYUN1
1 25730U 99025A   12243.81243427  .00000336  00000-0  21578-3 0  6833
2 25730 098.8505 201.5186 0018697 143.9444 216.2994 14.09716584685127
OKEAN-0
1 25860U 99039A   12243.78437126  .00000335  00000-0  58059-4 0  7216
2 25860 097.9446 204.9369 0001674 045.0031 315.1314 14.74276027705567
NOAA-16
1 26536U 00055A   12242.76352536  .00000003  00000-0  26291-4 0 08716
2 26536 099.0891 286.0006 0009926 234.1516 125.8729 14.12772260615424
NOAA-17
1 27453U 02032A   12242.70662522 -.00000023  00000-0  77754-5 0 08179
2 27453 098.3334 266.0189 0010927 304.7097 055.3035 14.24473753529225
NOAA-18
1 28654U 05018A   12242.77771265  .00000118  00000-0  89861-4 0 02991
2 28654 099.0531 201.5060 0013708 310.7125 049.2836 14.11691140374943
NOAA-19
1 33591U 09005A   12242.80216274  .00000238  00000-0  15553-3 0 04884
2 33591 098.8673 181.6920 0014128 169.6514 190.4953 14.11378045183398
HUBBLE
1 20580U 90037B   12241.12217144  .00000671  00000-0  36594-4 0   600
2 20580 028.4704 032.7181 0003386 103.9948 256.1080 15.02711964 25564
ISS
1 25544U 98067A   12243.89946671  .00007592  00000-0  13954-3 0  2140
2 25544 051.6478 109.6447 0015152 018.9022 073.7037 15.50185791789632
CO-58
1 28895U 05043F   12242.65426613  .00000423  00000-0  95881-4 0 02647
2 28895 097.9050 105.6624 0016740 282.2985 077.6334 14.60717163364382
FALCON
1 30776U 07006E   12242.95397257  .00003191  00000-0  20576-3 0 04389
2 30776 035.4309 186.1133 0002811 311.9306 048.1209 15.08014938301396
MAST
1 31126U 07012K   12242.98376590  .00000377  00000-0  94436-4 0 05567
2 31126 097.8754 249.7750 0092649 240.5056 118.6877 14.54234786284995
CAPE1
1 31130U 07012P   12242.59887605  .00000378  00000-0  96340-4 0  5548
2 31130 097.8847 245.7567 0100027 255.4623 103.5447 14.53039405284435
COMPASS
1 32787U 08021E   12243.77117322  .00001091  00000-0  13632-3 0  3959
2 32787 097.7957 303.4413 0015242 171.6870 188.4580 14.84245610234878
AAUSAT2
1 32788U 08021F   12242.71310670  .00001186  00000-0  14650-3 0  3871
2 32788 097.7966 302.8309 0014909 175.6753 184.4599 14.84583292234742
DO-64
1 32789U 08021G   12243.69241781  .00003070  00000-0  35462-3 0  4044
2 32789 097.8068 306.1041 0014881 168.9178 191.2327 14.86251387234948
CO-66
1 32791U 08021J   12242.64470217  .00000849  00000-0  10907-3 0 03855
2 32791 097.7935 302.0193 0015379 176.4393 183.6897 14.83615643234631
RS-30
1 32953U 08025A   12243.58040114  .00000010  00000-0  00000 0 0  1017
2 32953 082.4971 248.8735 0019537 141.9334 218.3130 12.43027077193804
PHARMSAT
1 35002U 09028B   12226.86484473  .07728342  73476-5  57159-3 0   789
2 35002 040.4341 050.6671 0012079 300.9773 059.0492 16.39309245183554
METEOR-M
1 35865U 09049A   12243.81167309 -.00000027  00000-0  75987-5 0  7322
2 35865 098.6475 296.7108 0002112 177.5261 182.5927 14.21867748153209
RS-38
1 35869U 09049E   12243.68092697  .00000006  00000-0  22129-4 0  7301
2 35869 098.6427 296.5658 0004223 187.4762 172.6354 14.22083793153204
JUGNU
1 37839U 11058B   12242.45052923  .00000620  00000-0  19019-3 0 02170
2 37839 019.9629 274.3908 0018983 312.0553 047.8219 14.12075531045615
SRMSAT
1 37841U 11058D   12242.46328872  .00000264  00000-0  00000-0 0 02196
2 37841 019.9720 280.6240 0012121 274.0380 085.8689 14.10156374045551
RAX-2
1 37853U 11061D   12242.93037434  .00005550  00000-0  44014-3 0 02847
2 37853 101.7073 316.7042 0245732 140.6567 221.2771 14.80501486045314
AUBIESAT
1 37854U 11061E   12242.93262894  .00006183  00000-0  48105-3 0 02790
2 37854 101.7114 317.0564 0246628 139.8203 222.1527 14.80939734045305
HRBE
1 37855U 11061F   12242.88649180  .00005537  00000-0  43330-3 0 02845
2 37855 101.7096 316.9188 0247095 140.1732 221.7883 14.80762158045298
RS-39
1 38051U 11062C   12243.83293256  .00006677  00000-0  27349-3 0  6561
2 38051 051.6382 163.8408 0012138 310.0470 116.4304 15.25401498 33367
E-STAR
1 38079U 12006C   12243.70875091  .00031219  00000-0  76351-3 0  4687
2 38079 069.4813 144.8086 0724004 153.7464 210.2375 14.19175023 28146
GOLIAT
1 38085U 12006J   12243.68326583  .00031203  00000-0  75142-3 0  4374
2 38085 069.4852 145.4003 0730509 154.2104 209.7534 14.18105863 28128
HORYU-2
1 38340U 12025D   12242.88211159  .00000941  00000-0  16470-3 0  1182
2 38340 098.1781 182.7949 0014042 096.3926 263.8900 14.70115456 15301
RS-40
1 38736U 12041D   12243.70058713  .00000010  00000-0  00000 0 0   359
2 38736 082.4816 336.2415 0017785 239.6149 120.3173 12.42646187  4163


Read previous mail | Read next mail


 14.12.2025 17:20:41lGo back Go up